Weather History for New River MCAS, NC

Change the Weather History Date:

Friday, May 2, 2014

  Actual Average Record
Temperature  
Mean Temperature 64 °F -  
Max Temperature 69 °F 75 °F 90 °F (2002)
Min Temperature 59 °F 53 °F 48 °F (2001)
Degree Days  
Heating Degree Days 1    
Growing Degree Days 14 (Base 50)    
Moisture  
Dew Point 57 °F    
Average Humidity 76    
Maximum Humidity 96    
Minimum Humidity 52    
Precipitation  
Precipitation 0.00 in - - ()
Sea Level Pressure  
Sea Level Pressure 29.91 in    
Wind  
Wind Speed 8 mph (WNW)    
Max Wind Speed 13 mph    
Max Gust Speed 23 mph    
Visibility 10 miles    
Events Rain    
Averages and records for this station are not official NWS values.
T = Trace of Precipitation, MM = Missing Value Source: NWS Daily Summary

Daily Weather History Graph

Daily Weather History Graph

Search for Another Location

Airport:

Trip Planner

Search our weather history database for the weather conditions in past years. The results will help you decide how hot, cold, wet, or windy it might be!

Date:

Astronomy

May. 02, 2014 Rise Set
Actual Time 6:18 AM EDT 7:55 PM EDT
Civil Twilight 5:51 AM EDT 8:22 PM EDT
Nautical Twilight 5:18 AM EDT 8:55 PM EDT
Astronomical Twilight 4:44 AM EDT 9:29 PM EDT
Moon 8:56 AM EDT (5/2) 11:13 PM EDT (5/2)
Length of Visible Light 14h 31m
Length of Day
13h 37m
Waxing Crescent, 12% of the Moon is Illuminated
May 2
Waxing Crescent
May 6
First Quarter
May 14
Full
May 21
Last Quarter
May 28
New

Hourly Weather History & Observations

Time (EDT) Temp. Dew Point Humidity Pressure Visibility Wind Dir Wind Speed Gust Speed Precip Events Conditions
12:56 AM 69.1 °F 64.9 °F 87% 29.88 in 10.0 mi SW 10.4 mph - N/A   Mostly Cloudy
1:56 AM 69.1 °F 64.9 °F 87% 29.87 in 10.0 mi WSW 10.4 mph - N/A   Overcast
2:56 AM 68.0 °F 64.0 °F 87% 29.87 in 10.0 mi West 10.4 mph - N/A   Mostly Cloudy
3:56 AM 66.0 °F 59.0 °F 78% 29.87 in 10.0 mi West 12.7 mph 23.0 mph N/A   Overcast
4:56 AM 64.0 °F 57.9 °F 80% 29.88 in 10.0 mi West 9.2 mph - N/A   Clear
5:56 AM 62.1 °F 57.9 °F 86% 29.89 in 10.0 mi West 8.1 mph - N/A   Clear
6:56 AM 62.1 °F 57.0 °F 84% 29.91 in 10.0 mi West 10.4 mph - N/A   Clear
7:56 AM 62.1 °F 57.0 °F 84% 29.91 in 10.0 mi WNW 11.5 mph - N/A   Clear
8:56 AM 63.0 °F 55.0 °F 75% 29.92 in 10.0 mi NW 9.2 mph - N/A   Mostly Cloudy
9:56 AM 66.0 °F 51.1 °F 59% 29.93 in 10.0 mi North 9.2 mph - N/A   Scattered Clouds
10:56 AM 69.1 °F 51.1 °F 53% 29.95 in 10.0 mi NNW 10.4 mph - N/A   Clear
11:56 AM 68.0 °F 50.0 °F 52% 29.95 in 10.0 mi NNW 5.8 mph - N/A   Overcast
12:56 PM 69.1 °F 51.1 °F 53% 29.92 in 10.0 mi NNW 9.2 mph - N/A   Overcast
1:56 PM 68.0 °F 52.0 °F 56% 29.92 in 10.0 mi WNW 5.8 mph - N/A   Mostly Cloudy
2:56 PM 68.0 °F 51.1 °F 55% 29.92 in 10.0 mi WNW 3.5 mph - 0.00 in Rain Light Rain
3:56 PM 66.0 °F 55.0 °F 68% 29.90 in 10.0 mi Calm Calm - 0.00 in Rain Light Rain
4:56 PM 64.9 °F 54.0 °F 68% 29.89 in 10.0 mi NNE 3.5 mph - 0.00 in Rain Light Rain
5:56 PM 64.0 °F 57.9 °F 80% 29.92 in 10.0 mi WSW 3.5 mph - 0.00 in   Overcast
6:56 PM 64.0 °F 57.9 °F 80% 29.91 in 10.0 mi West 3.5 mph - N/A   Overcast
7:56 PM 63.0 °F 57.0 °F 81% 29.90 in 10.0 mi Calm Calm - N/A   Overcast
8:56 PM 61.0 °F 59.0 °F 93% 29.91 in 10.0 mi Calm Calm - N/A   Clear
9:56 PM 60.1 °F 59.0 °F 96% 29.91 in 9.0 mi WNW 3.5 mph - N/A   Clear
10:56 PM 59.0 °F 57.9 °F 96% 29.92 in 10.0 mi Calm Calm - N/A   Clear
11:56 PM 59.0 °F 57.9 °F 96% 29.91 in 9.0 mi Calm Calm - N/A   Partly Cloudy